Weather History for Stuttgart, AR

Change the Weather History Date:

Tuesday, November 20, 2012

  Actual Average Record
Temperature  
Mean Temperature 62 °F -  
Max Temperature 73 °F 57 °F 73 °F (2003)
Min Temperature 51 °F 41 °F 30 °F (2006)
Degree Days  
Heating Degree Days 3    
Growing Degree Days 12 (Base 50)    
Moisture  
Dew Point 47 °F    
Average Humidity 64    
Maximum Humidity 82    
Minimum Humidity 43    
Precipitation  
Precipitation 0.00 in - - ()
Sea Level Pressure  
Sea Level Pressure 30.17 in    
Wind  
Wind Speed 4 mph (WSW)    
Max Wind Speed 9 mph    
Max Gust Speed -    
Visibility 10 miles    
Events      
Averages and records for this station are not official NWS values.
T = Trace of Precipitation, MM = Missing Value Source: NWS Daily Summary

Daily Weather History Graph

Daily Weather History Graph

Search for Another Location

Airport:

Trip Planner

Search our weather history database for the weather conditions in past years. The results will help you decide how hot, cold, wet, or windy it might be!

Date:

Astronomy

Nov. 20, 2012 Rise Set
Actual Time 6:45 AM CST 4:58 PM CST
Civil Twilight 6:18 AM CST 5:25 PM CST
Nautical Twilight 5:47 AM CST 5:56 PM CST
Astronomical Twilight 5:17 AM CST 6:26 PM CST
Moon 12:28 PM CST (11/20) No Moon Set
Length of Visible Light 11h 07m
Length of Day
10h 13m
First Quarter, 51% of the Moon is Illuminated
Nov 20
First Quarter
Nov 28
Full
Dec 6
Last Quarter
Dec 13
New
Dec 19
First Quarter

Hourly Weather History & Observations

Time (CST) Temp. Dew Point Humidity Pressure Visibility Wind Dir Wind Speed Gust Speed Precip Events Conditions
12:15 AM 53.6 °F 42.8 °F 67% 30.19 in 10.0 mi South 5.8 mph - N/A   Scattered Clouds
12:35 AM 53.6 °F 42.8 °F 67% 30.19 in 10.0 mi Calm Calm - N/A   Scattered Clouds
12:55 AM 53.6 °F 42.8 °F 67% 30.18 in 10.0 mi Calm Calm - N/A   Overcast
1:35 AM 53.6 °F 42.8 °F 67% 30.19 in 5.0 mi Calm Calm - N/A   Overcast
1:55 AM 51.8 °F 44.6 °F 76% 30.19 in 10.0 mi Calm Calm - N/A   Overcast
2:15 AM 51.8 °F 44.6 °F 76% 30.19 in 10.0 mi Calm Calm - N/A   Mostly Cloudy
2:35 AM 53.6 °F 44.6 °F 72% 30.19 in 10.0 mi SE 4.6 mph - N/A   Partly Cloudy
3:15 AM 51.8 °F 42.8 °F 71% 30.19 in 10.0 mi Calm Calm - N/A   Scattered Clouds
3:55 AM 51.8 °F 44.6 °F 76% 30.20 in 10.0 mi Calm Calm - N/A   Overcast
4:35 AM 51.8 °F 44.6 °F 76% 30.20 in 10.0 mi Calm Calm - N/A   Overcast
4:56 AM 51.8 °F 44.6 °F 76% 30.20 in 10.0 mi WSW 3.5 mph - N/A   Overcast
5:15 AM 53.6 °F 44.6 °F 72% 30.21 in 10.0 mi Calm Calm - N/A   Overcast
5:36 AM 53.6 °F 44.6 °F 72% 30.21 in 10.0 mi SW 3.5 mph - N/A   Overcast
5:55 AM 53.6 °F 44.6 °F 72% 30.20 in 10.0 mi SW 3.5 mph - N/A   Overcast
6:15 AM 53.6 °F 44.6 °F 72% 30.20 in 10.0 mi SW 4.6 mph - N/A   Overcast
6:36 AM 53.6 °F 44.6 °F 72% 30.20 in 10.0 mi SSW 4.6 mph - N/A   Overcast
6:55 AM 53.6 °F 44.6 °F 72% 30.21 in 10.0 mi SSW 3.5 mph - N/A   Overcast
7:55 AM 53.6 °F 46.4 °F 77% 30.21 in 10.0 mi SSW 3.5 mph - N/A   Overcast
8:15 AM 55.4 °F 46.4 °F 72% 30.21 in 10.0 mi SSW 3.5 mph - N/A   Overcast
8:35 AM 57.2 °F 44.6 °F 63% 30.21 in 10.0 mi SW 5.8 mph - N/A   Overcast
8:56 AM 57.2 °F 46.4 °F 67% 30.21 in 10.0 mi SW 6.9 mph - N/A   Scattered Clouds
9:15 AM 60.8 °F 44.6 °F 55% 30.21 in 10.0 mi WSW 8.1 mph - N/A   Clear
9:35 AM 62.6 °F 46.4 °F 55% 30.21 in 10.0 mi SW 8.1 mph - N/A   Clear
10:15 AM 66.2 °F 46.4 °F 49% 30.21 in 10.0 mi West 6.9 mph - N/A   Clear
10:35 AM 66.2 °F 46.4 °F 49% 30.21 in 10.0 mi West 9.2 mph - N/A   Clear
10:55 AM 68.0 °F 46.4 °F 46% 30.20 in 10.0 mi West 8.1 mph - N/A   Clear
11:15 AM 68.0 °F 46.4 °F 46% 30.19 in 10.0 mi West 9.2 mph - N/A   Clear
11:35 AM 69.8 °F 46.4 °F 43% 30.18 in 10.0 mi West 8.1 mph - N/A   Clear
11:55 AM 69.8 °F 46.4 °F 43% 30.17 in 10.0 mi West 4.6 mph - N/A   Clear
12:15 PM 71.6 °F 48.2 °F 43% 30.16 in 10.0 mi WNW 9.2 mph - N/A   Clear
12:35 PM 71.6 °F 48.2 °F 43% 30.15 in 10.0 mi NW 8.1 mph - N/A   Clear
12:55 PM 71.6 °F 48.2 °F 43% 30.14 in 10.0 mi WNW 8.1 mph - N/A   Clear
1:16 PM 73.4 °F 50.0 °F 44% 30.14 in 10.0 mi WSW 3.5 mph - N/A   Clear
1:35 PM 73.4 °F 50.0 °F 44% 30.13 in 10.0 mi West 5.8 mph - N/A   Clear
1:55 PM 73.4 °F 51.8 °F 47% 30.12 in 10.0 mi West 6.9 mph - N/A   Clear
2:35 PM 73.4 °F 51.8 °F 47% 30.11 in 10.0 mi West 6.9 mph - N/A   Clear
2:55 PM 73.4 °F 51.8 °F 47% 30.11 in 10.0 mi WSW 9.2 mph - N/A   Clear
3:35 PM 73.4 °F 51.8 °F 47% 30.10 in 10.0 mi WSW 8.1 mph - N/A   Clear
3:55 PM 71.6 °F 53.6 °F 53% 30.10 in 10.0 mi WSW 6.9 mph - N/A   Clear
4:35 PM 69.8 °F 53.6 °F 56% 30.10 in 10.0 mi WSW 5.8 mph - N/A   Clear
4:55 PM 66.2 °F 53.6 °F 64% 30.11 in 10.0 mi West 4.6 mph - N/A   Clear
5:15 PM 64.4 °F 53.6 °F 68% 30.12 in 10.0 mi West 4.6 mph - N/A   Clear
5:35 PM 62.6 °F 53.6 °F 72% 30.12 in 10.0 mi Calm Calm - N/A   Clear
5:55 PM 64.4 °F 51.8 °F 64% 30.12 in 10.0 mi West 3.5 mph - N/A   Partly Cloudy
6:35 PM 62.6 °F 51.8 °F 68% 30.13 in 10.0 mi WSW 4.6 mph - N/A   Clear
6:55 PM 60.8 °F 50.0 °F 68% 30.14 in 10.0 mi WSW 3.5 mph - N/A   Clear
7:15 PM 59.0 °F 50.0 °F 72% 30.15 in 10.0 mi Calm Calm - N/A   Clear
7:36 PM 57.2 °F 48.2 °F 72% 30.15 in 10.0 mi West 3.5 mph - N/A   Clear
7:55 PM 57.2 °F 50.0 °F 77% 30.15 in 10.0 mi West 3.5 mph - N/A   Clear
8:15 PM 57.2 °F 48.2 °F 72% 30.15 in 10.0 mi West 5.8 mph - N/A   Clear
8:55 PM 55.4 °F 48.2 °F 77% 30.16 in 10.0 mi West 4.6 mph - N/A   Clear
9:55 PM 55.4 °F 48.2 °F 77% 30.17 in 10.0 mi NNW 6.9 mph - N/A   Clear
10:15 PM 53.6 °F 46.4 °F 77% 30.18 in 10.0 mi NNW 8.1 mph - N/A   Clear
10:35 PM 51.8 °F 46.4 °F 82% 30.18 in 10.0 mi NNW 6.9 mph - N/A   Clear
11:15 PM 53.6 °F 44.6 °F 72% 30.18 in 10.0 mi NNW 9.2 mph - N/A   Clear
11:55 PM 51.8 °F 44.6 °F 76% 30.18 in 10.0 mi NNW 8.1 mph - N/A   Clear